Change the Weather History Date:

Tuesday, January 1, 2013

  Actual Average Record
Temperature  
Mean Temperature 56 °F -  
Max Temperature 63 °F 59 °F 71 °F (2012)
Min Temperature 50 °F 43 °F 41 °F (1999)
Degree Days  
Heating Degree Days 8    
Growing Degree Days 6 (Base 50)    
Moisture  
Dew Point 47 °F    
Average Humidity 76    
Maximum Humidity 93    
Minimum Humidity 59    
Precipitation  
Precipitation 0.00 in 0.11 in - ()
Sea Level Pressure  
Sea Level Pressure 30.14 in    
Wind  
Wind Speed 9 mph ()    
Max Wind Speed 22 mph    
Max Gust Speed 33 mph    
Visibility 6.5 miles    
Events Rain    
Averages and records for this station are not official NWS values.
T = Trace of Precipitation, MM = Missing Value Source: Averaged Metar Reports

Daily Weather History Graph

Daily Weather History Graph

Search for Another Location

Airport or City:

Trip Planner

Search our weather history database for the weather conditions in past years. The results will help you decide how hot, cold, wet, or windy it might be!

Date:

Astronomy

Jan. 01, 2013 Rise Set
Actual Time 8:30 AM CET 6:12 PM CET
Civil Twilight 8:01 AM CET 6:41 PM CET
Nautical Twilight 7:29 AM CET 7:14 PM CET
Astronomical Twilight 6:57 AM CET 7:45 PM CET
Moon 10:22 PM CET (1/1) 10:41 AM CET (1/1)
Length of Visible Light 10h 40m
Length of Day
9h 42m
Waning Gibbous, 85% of the Moon is Illuminated
Jan 1
Waning Gibbous
Jan 5
Last Quarter
Jan 11
New
Jan 19
First Quarter
Jan 27
Full

Hourly Weather History & Observations

Time (CET) Temp. Dew Point Humidity Pressure Visibility Wind Dir Wind Speed Gust Speed Precip Events Conditions
12:00 AM 51.8 °F 48.2 °F 88% 30.21 in 6.2 mi WNW 6.9 mph - N/A   Scattered Clouds
12:30 AM 48.2 °F 46.4 °F 93% 30.21 in 6.2 mi WNW 5.8 mph - N/A   Scattered Clouds
1:00 AM 51 °F 46 °F 78% 30.21 in 7 mi WNW 9.2 mph - -   Partly Cloudy
1:00 AM 50.0 °F 46.4 °F 87% 30.18 in 6.2 mi WNW 9.2 mph - N/A   Scattered Clouds
1:30 AM 48.2 °F 46.4 °F 93% 30.18 in 6.2 mi WNW 5.8 mph - N/A   Scattered Clouds
2:00 AM 50.0 °F 46.4 °F 87% 30.15 in 6.2 mi West 6.9 mph - N/A   Scattered Clouds
2:30 AM 51.8 °F 44.6 °F 76% 30.15 in 6.2 mi West 6.9 mph - N/A   Scattered Clouds
3:00 AM 50.0 °F 46.4 °F 87% 30.15 in 6.2 mi WNW 5.8 mph - N/A   Scattered Clouds
3:30 AM 50.0 °F 46.4 °F 87% 30.12 in 6.2 mi NW 4.6 mph - N/A   Scattered Clouds
4:00 AM 51.8 °F 44.6 °F 76% 30.12 in 6.2 mi WNW 10.4 mph - N/A   Scattered Clouds
4:30 AM 51.8 °F 44.6 °F 76% 30.12 in 6.2 mi WNW 9.2 mph - N/A   Scattered Clouds
5:00 AM 51.8 °F 44.6 °F 76% 30.12 in 6.2 mi West 8.1 mph - N/A   Scattered Clouds
5:30 AM 50.0 °F 44.6 °F 82% 30.12 in 6.2 mi West 10.4 mph - N/A Rain Light Rain
6:00 AM 51.8 °F 44.6 °F 76% 30.12 in 6.2 mi West 6.9 mph - N/A Rain Light Rain
6:30 AM 51.8 °F 44.6 °F 76% 30.12 in 6.2 mi West 10.4 mph - N/A   Mostly Cloudy
7:00 AM 53 °F 45 °F 67% 30.15 in 7 mi West 9.2 mph - -   Partly Cloudy
7:00 AM 51.8 °F 44.6 °F 76% 30.12 in 6.2 mi West 9.2 mph - N/A   Mostly Cloudy
7:30 AM 51.8 °F 44.6 °F 76% 30.12 in 6.2 mi West 9.2 mph - N/A   Mostly Cloudy
8:00 AM 51.8 °F 44.6 °F 76% 30.12 in 6.2 mi West 9.2 mph - N/A   Mostly Cloudy
8:30 AM 51.8 °F 44.6 °F 76% 30.12 in 6.2 mi West 6.9 mph - N/A   Scattered Clouds
9:00 AM 51.8 °F 46.4 °F 82% 30.15 in 6.2 mi West 8.1 mph - N/A   Scattered Clouds
9:30 AM 51.8 °F 46.4 °F 82% 30.15 in 6.2 mi West 5.8 mph - N/A   Scattered Clouds
10:00 AM 53.6 °F 48.2 °F 82% 30.15 in 6.2 mi WNW 4.6 mph - N/A   Scattered Clouds
10:30 AM 53.6 °F 48.2 °F 82% 30.15 in 6.2 mi NW 4.6 mph - N/A   Scattered Clouds
11:00 AM 57.2 °F 50.0 °F 77% 30.15 in 6.2 mi WNW 4.6 mph - N/A   Scattered Clouds
11:30 AM 57.2 °F 50.0 °F 77% 30.15 in 6.2 mi West 5.8 mph - N/A   Scattered Clouds
12:00 PM 59.0 °F 50.0 °F 72% 30.15 in 6.2 mi WNW 5.8 mph - N/A   Scattered Clouds
12:30 PM 60.8 °F 50.0 °F 68% 30.15 in 6.2 mi WNW 4.6 mph - N/A   Scattered Clouds
1:00 PM 60 °F 49 °F 59% 30.15 in 9 mi West 8.1 mph - -   Mostly Cloudy
1:00 PM 59.0 °F 50.0 °F 72% 30.12 in 6.2 mi West 8.1 mph - N/A   Mostly Cloudy
1:30 PM 59.0 °F 51.8 °F 77% 30.12 in 6.2 mi WNW 11.5 mph - N/A   Mostly Cloudy
2:00 PM 57.2 °F 51.8 °F 82% 30.12 in 6.2 mi West 13.8 mph - N/A Rain Light Rain
2:30 PM 59.0 °F 51.8 °F 77% 30.09 in 6.2 mi West 13.8 mph - N/A   Scattered Clouds
3:00 PM 60.8 °F 51.8 °F 72% 30.09 in 6.2 mi West 13.8 mph - N/A   Scattered Clouds
3:30 PM 60.8 °F 50.0 °F 68% 30.09 in 6.2 mi West 15.0 mph 28.8 mph N/A   Scattered Clouds
4:00 PM 60.8 °F 50.0 °F 68% 30.09 in 6.2 mi NW 13.8 mph 25.3 mph N/A   Scattered Clouds
4:30 PM 60.8 °F 48.2 °F 63% 30.12 in 6.2 mi NW 15.0 mph - N/A   Scattered Clouds
5:00 PM 59.0 °F 48.2 °F 67% 30.12 in 6.2 mi NW 13.8 mph - N/A   Scattered Clouds
5:30 PM 57.2 °F 48.2 °F 72% 30.12 in 6.2 mi WNW 11.5 mph - N/A   Scattered Clouds
6:00 PM 55.4 °F 46.4 °F 72% 30.12 in 6.2 mi WNW 16.1 mph - N/A   Scattered Clouds
6:30 PM 55.4 °F 46.4 °F 72% 30.15 in 6.2 mi NW 13.8 mph - N/A   Scattered Clouds
7:00 PM 56 °F 46 °F 59% 30.16 in 16 mi WNW 16.1 mph - -   Scattered Clouds
7:00 PM 53.6 °F 46.4 °F 77% 30.15 in 6.2 mi WNW 16.1 mph - N/A   Partly Cloudy
7:30 PM 53.6 °F 46.4 °F 77% 30.15 in 6.2 mi West 11.5 mph - N/A   Partly Cloudy
8:00 PM 53.6 °F 46.4 °F 77% 30.18 in 6.2 mi West 16.1 mph 31.1 mph N/A   Partly Cloudy
8:30 PM 55.4 °F 44.6 °F 67% 30.18 in 6.2 mi WNW 19.6 mph - N/A   Partly Cloudy
9:00 PM 53.6 °F 44.6 °F 72% 30.15 in 6.2 mi WNW 21.9 mph 33.4 mph N/A   Partly Cloudy
9:30 PM 53.6 °F 44.6 °F 72% 30.18 in 6.2 mi WNW 20.7 mph - N/A   Partly Cloudy
10:00 PM 53.6 °F 44.6 °F 72% 30.18 in 6.2 mi West 19.6 mph - N/A   Partly Cloudy
10:30 PM 51.8 °F 44.6 °F 76% 30.15 in 6.2 mi WNW 17.3 mph - N/A   Partly Cloudy
11:00 PM 53.6 °F 44.6 °F 72% 30.18 in 6.2 mi West 18.4 mph - N/A   Partly Cloudy
11:30 PM 53.6 °F 44.6 °F 72% 30.18 in 6.2 mi West 17.3 mph - N/A   Partly Cloudy